Tulsa, OK

2:03 AM CDT on June 24, 2017 (GMT -0500)
Tulsa International

Weather History for KTUL - March, 2012

Change the Weather History Date:

Friday, March 2, 2012

  Actual Average Record
Temperature  
Mean Temperature 53 °F 47 °F  
Max Temperature 67 °F 58 °F 84 °F (1976)
Min Temperature 39 °F 36 °F 7 °F (1943)
Degree Days  
Heating Degree Days 12 18  
Month to date heating degree days 17 37  
Since 1 July heating degree days 2492 2948  
Cooling Degree Days 0 0  
Month to date cooling degree days 0 0  
Year to date cooling degree days 0 1  
Growing Degree Days 4 (Base 50)    
Moisture  
Dew Point 39 °F    
Average Humidity 61    
Maximum Humidity 87    
Minimum Humidity 35    
Precipitation  
Precipitation 0.00 in 0.09 in 2.06 in (1988)
Month to date precipitation 0.00 0.18  
Year to date precipitation 2.22 3.69  
Sea Level Pressure  
Sea Level Pressure 29.68 in    
Wind  
Wind Speed 11 mph (NNW)    
Max Wind Speed 25 mph    
Max Gust Speed 32 mph    
Visibility 10 miles    
Events      
T = Trace of Precipitation, MM = Missing Value Source: NWS Daily Summary

Daily Weather History Graph

Daily Weather History Graph

Search for Another Location

Airport or City:

Trip Planner

Search our weather history database for the weather conditions in past years. The results will help you decide how hot, cold, wet, or windy it might be!

Date:

Astronomy

Mar. 02, 2012 Rise Set
Actual Time 6:51 AM CST 6:19 PM CST
Civil Twilight 6:26 AM CST 6:45 PM CST
Nautical Twilight 5:56 AM CST 7:15 PM CST
Astronomical Twilight 5:26 AM CST 7:45 PM CST
Moon 12:40 PM CST (3/2) 2:34 AM CST (3/2)
Length of Visible Light 12h 19m
Length of Day
11h 27m
Waxing Gibbous, 66% of the Moon is Illuminated
Mar 2
Waxing Gibbous
Mar 8
Full
Mar 14
Last Quarter
Mar 22
New
Mar 30
First Quarter

Hourly Weather History & Observations

Time (CST) Temp. Windchill Dew Point Humidity Pressure Visibility Wind Dir Wind Speed Gust Speed Precip Events Conditions
12:53 AM 64.9 °F - 60.1 °F 84% 29.37 in 8.0 mi South 15.0 mph - N/A   Partly Cloudy
1:43 AM 66.2 °F - 60.8 °F 83% 29.41 in 8.0 mi WSW 11.5 mph 16.1 mph N/A   Overcast
1:53 AM 66.0 °F - 61.0 °F 84% 29.39 in 8.0 mi West 11.5 mph - N/A   Mostly Cloudy
2:53 AM 61.0 °F - 55.0 °F 81% 29.37 in 10.0 mi Calm Calm - N/A   Overcast
3:05 AM 60.8 °F - 55.4 °F 82% 29.38 in 9.0 mi ESE 4.6 mph - N/A   Overcast
3:53 AM 60.1 °F - 55.0 °F 83% 29.38 in 8.0 mi NW 8.1 mph - N/A   Mostly Cloudy
4:03 AM 57.2 °F - 50.0 °F 77% 29.40 in 10.0 mi NW 18.4 mph 24.2 mph N/A   Overcast
4:17 AM 55.4 °F - 42.8 °F 63% 29.41 in 10.0 mi NW 13.8 mph - N/A   Scattered Clouds
4:53 AM 51.1 °F - 37.0 °F 59% 29.44 in 10.0 mi NNW 15.0 mph - N/A   Clear
5:53 AM 46.9 °F - 37.0 °F 68% 29.50 in 10.0 mi NW 11.5 mph 20.7 mph N/A   Clear
6:53 AM 46.0 °F 39.9 °F 36.0 °F 68% 29.57 in 10.0 mi WNW 13.8 mph - N/A   Clear
7:53 AM 46.0 °F 39.3 °F 35.1 °F 66% 29.65 in 10.0 mi WNW 16.1 mph 24.2 mph N/A   Clear
8:53 AM 46.9 °F - 36.0 °F 66% 29.73 in 10.0 mi NW 17.3 mph - N/A   Mostly Cloudy
9:53 AM 48.9 °F - 35.1 °F 59% 29.75 in 10.0 mi NW 15.0 mph 25.3 mph N/A   Partly Cloudy
10:53 AM 54.0 °F - 36.0 °F 51% 29.76 in 10.0 mi NNW 17.3 mph 27.6 mph N/A   Clear
11:53 AM 55.0 °F - 35.1 °F 47% 29.79 in 10.0 mi NNW 18.4 mph 24.2 mph N/A   Partly Cloudy
12:53 PM 57.9 °F - 33.1 °F 39% 29.80 in 10.0 mi North 21.9 mph 28.8 mph N/A   Partly Cloudy
1:53 PM 57.9 °F - 34.0 °F 41% 29.81 in 10.0 mi NNW 16.1 mph 32.2 mph N/A   Scattered Clouds
2:53 PM 57.9 °F - 32.0 °F 37% 29.82 in 10.0 mi North 15.0 mph 23.0 mph N/A   Scattered Clouds
3:53 PM 55.9 °F - 28.9 °F 36% 29.83 in 10.0 mi North 13.8 mph - N/A   Scattered Clouds
4:53 PM 55.0 °F - 30.0 °F 38% 29.86 in 10.0 mi North 15.0 mph - N/A   Partly Cloudy
5:53 PM 51.8 °F - 30.2 °F 44% 29.89 in 10.0 mi NE 10.4 mph - N/A   Partly Cloudy
6:53 PM 48.9 °F - 30.9 °F 50% 29.92 in 10.0 mi ENE 8.1 mph - N/A   Clear
7:53 PM 46.9 °F - 30.0 °F 52% 29.95 in 10.0 mi NE 3.5 mph - N/A   Clear
8:53 PM 46.9 °F - 28.9 °F 50% 29.96 in 10.0 mi ENE 3.5 mph - N/A   Clear
9:53 PM 46.0 °F - 28.9 °F 51% 29.96 in 10.0 mi Calm Calm - N/A   Clear
10:53 PM 42.1 °F - 28.9 °F 60% 29.96 in 10.0 mi Calm Calm - N/A   Clear
11:53 PM 43.0 °F 41.3 °F 30.0 °F 60% 29.96 in 10.0 mi SSW 3.5 mph - N/A   Clear